Location: Czekanka
(50.4925°N, 19.2643°E)
Time: 12:17:18
(UTC+00:00)

FENGYUN 1C DEB - Pass Details

Date: 22 November 2025
Orbit: 800 x 866 km, 98.6° (Epoch: 04 December)

Event Time Altitude Azimuth Distance (km) Brightness Sun altitude
Rises 04:20:49 0° 8° (N) 3,332 ? -16.7°
Reaches altitude 10° 04:23:22 10° 359° (N) 2,392 ? -16.3°
Maximum altitude 04:28:00 33° 298° (WNW) 1,335 ? -15.6°
Drops below altitude 10° 04:32:37 10° 236° (SW) 2,375 ? -14.9°
Enters shadow 04:34:10 - 229° (SW) 2,936 ? -14.6°
